Location: 10033 Water Well
(34.0865°N, 106.8959°W)
Time: 18:10:27
(UTC+00:00)

Resurs 01 Rocket - Pass Details

Date: 17 April 2026
Orbit: 626 x 636 km, 97.7° (Epoch: 12 May)

Event Time Altitude Azimuth Distance (km) Brightness Sun altitude
Rises 03:11:54 0° 208° (SSW) 2,908 5.0 -18.6°
Reaches altitude 10° 03:15:00 10° 232° (SW) 2,004 4.5 -19.2°
Maximum altitude 03:17:26 15° 267° (W) 1,716 4.6 -19.7°
Drops below altitude 10° 03:19:53 10° 301° (WNW) 2,008 5.4 -20.1°
Sets 03:23:00 0° 325° (NW) 2,919 6.1 -20.7°
